Weather in Norkino

Russia / Pskov Oblast     56°40′10″N   29°01′56″E
temp.,
°C
wind,
m/s
gust,
m/s
humid.,
%
clouds,
%
prec.,
mm/h
press.,
hPa
HPBL,
m
17 august, wed
wed1700:00+19se3108273 0.0 1018220
03:00+18se268496 0.0 1018117
06:00+17se277865 0.0 1017127
09:00+22ese36608 0.0 1017346
12:00+27ese353968 0.0 10171081
15:00+29ese34385 0.0 10161764
18:00+27ese25485 0.0 1015400
21:00+21ese226679 0.0 101633
18 august, thu
thu1800:00+19se23725 0.0 101765
03:00+18sse227676 0.0 101736
06:00+17se22780 0.0 101732
09:00+23ese24635 0.0 1018297
12:00+28se34425 0.0 10181100
15:00+29ese23375 0.0 10181836
18:00+28e35485 0.0 1018531
21:00+21e24675 0.0 101857
19 august, fri
fri1900:00+19ese377015 0.0 1019123
03:00+18ese38695 0.0 1020133
06:00+16ese38743 0.0 1020141
09:00+22se410555 0.0 1021401
12:00+27ese47421 0.0 10211260
15:00+28ese45360 0.0 10201967
18:00+26ese36441 0.0 1020829
21:00+21ese4126623 0.0 1020427
20 august, sat
sat2000:00+21se4106576 0.1 1021591
03:00+17se412720 0.1 1021423
06:00+15ese310860 0.0 1021296
09:00+19ese48640 0.0 1021653
12:00+23se46520 0.0 10201216
15:00+26se574432 0.0 10181826
18:00+25se474723 0.0 10181332
21:00+18ese31068100 0.0 1018208
21 august, sun
sun2100:00+17ese410775 0.0 1018217
03:00+16se3108228 0.0 1018251
06:00+15se39855 0.0 1017217
09:00+20sse49615 0.0 1017418
12:00+26sse57434 0.0 10161052
15:00+27sse573630 0.0 10161654
18:00+26se484375 0.0 10151255
21:00+23sse512525 0.0 1016895